Tracking 30313 objects as of 21-Apr-2025
HD Live streaming from Space Station
objects crossing your sky now

STARLINK-30376

Track STARLINK-30376 now!
10-day predictions
STARLINK-30376 is classified as:


NORAD ID: 57782
Int'l Code: 2023-134M
Perigee: 564.9 km
Apogee: 567.4 km
Inclination: 43.0 °
Period: 95.8 minutes
Semi major axis: 6937 km
RCS: Unknown
Launch date: September 4, 2023
Source: United States (US)
Launch site: AIR FORCE EASTERN TEST RANGE (AFETR)
Your satellite tracking list
Your tracking list is empty




NASA's NSSDC Master Catalog

Two Line Element Set (TLE):
1 57782U 23134M   25111.47333779  .00002271  00000-0  18308-3 0  9990
2 57782  43.0025 148.1612 0001793 261.8033  98.2606 15.02552041 91007
Source of the keplerian elements: AFSPC